GW3347 Weather Reports


time (UTC)temp
C
wind
direction
speed
KPH
gust
KPH
rain 1hr
cm
rain 24hr
cm
rain mn
cm
humidity
%
barometer
mb
20260510220030 21 0 0.0 1.6 0.00 0.00 0.00 70 1013.2
20260510214532 22 0 0.0 0.0 0.00 0.00 0.00 64 1013.1
20260510213035 22 0 0.0 0.0 0.00 0.00 0.00 61 1012.4
20260510211530 23 0 0.0 0.0 0.00 0.00 0.00 57 1012.3
20260510210032 24 0 0.0 0.0 0.00 0.00 0.00 51 1012.1
20260510204536 24 0 0.0 0.0 0.00 0.00 0.00 50 1011.7
20260510203032 25 0 0.0 11.3 0.00 0.00 0.00 50 1011.3
20260510201531 25 0 1.6 14.5 0.00 0.00 0.00 48 1011.3
20260510200033 25 142 0.0 16.1 0.00 0.00 0.00 50 1011.5
20260510194538 25 0 3.2 22.5 0.00 0.00 0.00 52 1011.8
20260510193030 25 0 0.0 12.9 0.00 0.00 0.00 53 1011.9
20260510191532 25 150 0.0 14.5 0.00 0.00 0.00 51 1012.1
20260510190045 25 0 0.0 24.1 0.00 0.00 0.00 53 1012.2
20260510184532 25 141 3.2 17.7 0.00 0.00 0.00 51 1012.3
20260510183030 25 0 1.6 20.9 0.00 0.00 0.00 53 1012.2
20260510181528 24 0 0.0 11.3 0.00 0.00 0.00 53 1012.4
20260510180031 25 0 1.6 16.1 0.00 0.00 0.00 54 1012.4
20260510174530 25 0 0.0 12.9 0.00 0.00 0.00 51 1012.4
20260510173035 25 0 0.0 16.1 0.00 0.00 0.00 55 1012.4
20260510171532 26 0 0.0 4.8 0.00 0.00 0.00 54 1012.7
20260510170032 26 0 0.0 14.5 0.00 0.00 0.00 45 1012.7
20260510164534 26 327 0.0 6.4 0.00 0.00 0.00 47 1013.0
20260510163041 25 0 0.0 0.0 0.00 0.00 0.00 50 1013.1
20260510161534 25 0 1.6 16.1 0.00 0.00 0.00 50 1013.2
20260510160029 24 0 0.0 4.8 0.00 0.00 0.00 50 1013.1
20260510154531 24 0 0.0 0.0 0.00 0.00 0.00 52 1013.1
20260510153034 23 0 0.0 11.3 0.00 0.00 0.00 56 1013.1
20260510151533 23 0 0.0 1.6 0.00 0.00 0.00 56 1013.2
20260510150039 23 0 0.0 12.9 0.00 0.00 0.00 56 1013.0
20260510144538 22 0 0.0 1.6 0.00 0.00 0.00 62 1012.7
20260510143037 21 0 0.0 1.6 0.00 0.00 0.00 64 1012.5
20260510141529 21 0 0.0 4.8 0.00 0.00 0.00 67 1012.4
20260510140034 20 0 0.0 0.0 0.00 0.00 0.00 76 1012.5
20260510134530 18 0 0.0 0.0 0.00 0.00 0.00 79 1012.5
20260510133030 17 0 0.0 3.2 0.00 0.00 0.00 84 1012.5
20260510131530 17 0 0.0 0.0 0.00 0.00 0.00 88 1012.8
20260510130034 16 0 0.0 1.6 0.00 0.00 0.00 91 1012.9
20260510124535 15 0 0.0 0.0 0.00 0.00 0.00 93 1013.0
20260510123032 15 0 0.0 0.0 0.00 0.00 0.00 93 1012.9
20260510121530 14 0 0.0 1.6 0.00 0.00 0.00 94 1012.7
20260510120035 13 0 0.0 0.0 0.00 0.00 0.00 95 1012.6
20260510114533 12 0 0.0 1.6 0.00 0.00 0.00 95 1012.6
20260510113031 11 0 0.0 1.6 0.00 0.00 0.00 94 1012.3
20260510111534 10 0 0.0 0.0 0.00 0.00 0.00 94 1012.0
20260510110030 10 0 0.0 0.0 0.00 0.00 0.00 93 1011.6
20260510104531 10 0 0.0 0.0 0.00 0.00 0.00 93 1011.3
20260510103032 9 0 0.0 0.0 0.00 0.00 0.00 93 1011.2
20260510101528 9 0 0.0 0.0 0.00 0.00 0.00 93 1011.1
20260510100041 9 0 0.0 0.0 0.00 0.00 0.00 93 1011.0
20260510094546 9 0 0.0 0.0 0.00 0.00 0.00 92 1010.9
20260510093032 10 0 0.0 0.0 0.00 0.00 0.00 92 1011.0
20260510091531 10 0 0.0 0.0 0.00 0.00 0.00 92 1010.8
20260510090037 10 0 0.0 0.0 0.00 0.00 0.00 92 1010.8
20260510084532 10 0 0.0 0.0 0.00 0.00 0.00 92 1010.7
20260510083031 10 0 0.0 0.0 0.00 0.00 0.00 92 1010.3
20260510081543 10 0 0.0 0.0 0.00 0.00 0.00 92 1010.1
20260510080032 10 0 0.0 0.0 0.00 0.00 0.00 91 1010.0
20260510074530 10 0 0.0 0.0 0.00 0.00 0.00 91 1009.9
20260510073028 11 0 0.0 0.0 0.00 0.00 0.00 91 1009.8
20260510071539 11 0 0.0 0.0 0.00 0.00 0.00 91 1009.8
20260510070038 11 0 0.0 0.0 0.00 0.00 0.00 91 1009.8
20260510064532 11 0 0.0 0.0 0.00 0.00 0.00 90 1009.9
20260510063035 11 0 0.0 0.0 0.00 0.00 0.00 90 1009.7
20260510061530 11 0 0.0 0.0 0.00 0.00 0.00 91 1009.6
20260510060028 11 0 0.0 0.0 0.00 0.00 0.00 90 1009.5
20260510054530 11 0 0.0 0.0 0.00 0.00 0.00 90 1009.6
20260510053030 12 0 0.0 0.0 0.00 0.00 0.00 89 1009.7
20260510051532 12 0 0.0 0.0 0.00 0.00 0.00 89 1009.8
20260510050029 12 0 0.0 0.0 0.00 0.00 0.00 88 1009.7
20260510044533 12 0 0.0 0.0 0.00 0.00 0.00 88 1009.7
20260510043031 13 0 0.0 0.0 0.00 0.00 0.00 86 1009.7
20260510041530 13 0 0.0 0.0 0.00 0.00 0.00 86 1009.7
20260510040031 13 0 0.0 0.0 0.00 0.00 0.00 86 1009.6
20260510034540 13 0 0.0 0.0 0.00 0.00 0.00 85 1009.5
20260510033029 14 0 0.0 0.0 0.00 0.00 0.00 84 1009.5
20260510031531 15 0 0.0 0.0 0.00 0.00 0.00 84 1009.5
20260510030032 15 0 0.0 0.0 0.00 0.00 0.00 82 1009.4
20260510024529 15 0 0.0 0.0 0.00 0.00 0.00 80 1009.3
20260510023032 15 0 0.0 0.0 0.00 0.00 0.00 80 1009.3
20260510021533 16 0 0.0 0.0 0.00 0.00 0.00 78 1009.2
20260510020030 16 0 0.0 1.6 0.00 0.00 0.00 75 1009.2
20260510014536 17 0 0.0 0.0 0.00 0.00 0.00 73 1009.0
20260510013032 17 0 0.0 0.0 0.00 0.00 0.00 72 1008.7
20260510011539 17 0 0.0 0.0 0.00 0.00 0.00 71 1008.6
20260510010031 17 0 0.0 3.2 0.00 0.00 0.00 71 1008.6
20260510004531 18 0 0.0 9.7 0.00 0.00 0.00 71 1008.7
20260510003032 18 0 0.0 0.0 0.00 0.00 0.00 72 1008.5
20260510001532 18 0 0.0 6.4 0.00 0.00 0.00 71 1008.4
20260510000053 18 0 0.0 11.3 0.00 0.00 0.00 71 1008.3
20260509234546 18 0 0.0 3.2 0.00 0.00 0.00 71 1008.3
20260509233032 18 0 0.0 1.6 0.00 0.00 0.00 69 1008.3
20260509231530 19 0 0.0 9.7 0.00 0.00 0.00 67 1008.1
20260509230035 20 0 0.0 3.2 0.00 0.00 0.00 65 1007.9
20260509224532 20 0 0.0 0.0 0.00 0.00 0.00 65 1008.0
20260509223032 20 0 0.0 14.5 0.00 0.00 0.00 65 1008.1
20260509221531 21 0 0.0 3.2 0.00 0.00 0.00 66 1008.0